Weather History for LFAT - July, 2013

Change the Weather History Date:

Friday, July 12, 2013

  Actual Average (EBFN) Record (EBFN)
Temperature  
Mean Temperature 58 °F -  
Max Temperature 69 °F 64 °F 71 °F (1996)
Min Temperature 47 °F 55 °F 51 °F (2008)
Degree Days  
Heating Degree Days 7    
Growing Degree Days 8 (Base 50)    
Moisture  
Dew Point 51 °F    
Average Humidity 75    
Maximum Humidity 94    
Minimum Humidity 51    
Precipitation  
Precipitation 0.00 in - - ()
Sea Level Pressure  
Sea Level Pressure 30.25 in    
Wind  
Wind Speed 5 mph ()    
Max Wind Speed 22 mph    
Max Gust Speed -    
Visibility 7.8 miles    
Events      
Averages and records for this station are not official NWS values.
T = Trace of Precipitation, MM = Missing Value Source: Averaged Metar Reports

Daily Weather History Graph

Daily Weather History Graph

Search for Another Location

Airport or City:

Trip Planner

Search our weather history database for the weather conditions in past years. The results will help you decide how hot, cold, wet, or windy it might be!

Date:

Astronomy

Jul. 12, 2013 Rise Set
Actual Time 5:55 AM CEST 10:02 PM CEST
Civil Twilight 5:11 AM CEST 10:45 PM CEST
Nautical Twilight 4:09 AM CEST 11:47 PM CEST
Astronomical Twilight 2:31 AM CEST 1:26 AM CEST
Moon 10:28 AM CEST (7/12) 11:30 PM CEST (7/12)
Length of Visible Light 17h 33m
Length of Day
16h 06m
Waxing Crescent, 15% of the Moon is Illuminated
Jul 12
Waxing Crescent
Jul 16
First Quarter
Jul 22
Full
Jul 29
Last Quarter
Aug 6
New

Hourly Weather History & Observations

Time (CEST) Temp. Dew Point Humidity Pressure Visibility Wind Dir Wind Speed Gust Speed Precip Events Conditions
12:00 AM 51.8 °F 46.4 °F 82% 30.24 in 6.2 mi Variable 2.3 mph - N/A   Unknown
12:30 AM 50.0 °F 46.4 °F 87% 30.24 in 6.2 mi NW 3.5 mph - N/A   Unknown
1:00 AM 50.0 °F 46.4 °F 87% 30.24 in 6.2 mi NW 2.3 mph - N/A   Unknown
1:30 AM 48.2 °F 44.6 °F 87% 30.24 in 6.2 mi NNW 3.5 mph - N/A   Unknown
2:00 AM 51 °F 48 °F 84% 30.24 in 12 mi ESE 3.5 mph - -   Clear
2:00 AM 50.0 °F 46.4 °F 87% 30.24 in 6.2 mi NW 3.5 mph - N/A   Unknown
2:30 AM 50.0 °F 46.4 °F 87% 30.24 in 6.2 mi Variable 3.5 mph - N/A   Unknown
3:00 AM 49 °F 47 °F 90% 30.25 in 12 mi NNE 2.3 mph - -   Clear
3:00 AM 50.0 °F 46.4 °F 87% 30.24 in 6.2 mi Variable 2.3 mph - N/A   Unknown
3:30 AM 48.2 °F 46.4 °F 93% 30.24 in 6.2 mi Variable 1.2 mph - N/A   Unknown
4:00 AM 49 °F 47 °F 89% 30.25 in 25 mi NNE 2.3 mph - -   Clear
4:00 AM 48.2 °F 46.4 °F 93% 30.24 in 6.2 mi Variable 2.3 mph - N/A   Unknown
4:30 AM 50.0 °F 48.2 °F 94% 30.21 in 6.2 mi Variable 2.3 mph - N/A   Unknown
5:00 AM 51 °F 48 °F 84% 30.24 in 12 mi ESE 3.5 mph - -   Clear
5:00 AM 50.0 °F 48.2 °F 94% 30.21 in 6.2 mi Variable 3.5 mph - N/A   Unknown
5:30 AM 48.2 °F 46.4 °F 93% 30.21 in 6.2 mi Variable 1.2 mph - N/A   Unknown
6:00 AM 50 °F 48 °F 90% 30.24 in 10 mi East 2.3 mph - -   Clear
6:00 AM 50.0 °F 48.2 °F 94% 30.21 in 6.2 mi Variable 2.3 mph - N/A   Unknown
6:30 AM 50.0 °F 46.4 °F 87% 30.24 in 6.2 mi Calm Calm - N/A   Unknown
7:00 AM 51 °F 49 °F 88% 30.25 in 12 mi SSE 1.2 mph - -   Clear
7:00 AM 50.0 °F 48.2 °F 94% 30.24 in 6.2 mi SSE 1.2 mph - N/A   Unknown
7:30 AM 53.6 °F 50.0 °F 88% 30.24 in 6.2 mi Calm Calm - N/A   Unknown
8:00 AM 56 °F 51 °F 79% 30.25 in 12 mi Calm Calm - -   Clear
8:00 AM 55.4 °F 51.8 °F 88% 30.24 in 6.2 mi Calm Calm - N/A   Unknown
8:30 AM 59.0 °F 51.8 °F 77% 30.24 in 6.2 mi NE 3.5 mph - N/A   Unknown
9:00 AM 59 °F 51 °F 66% 30.27 in 12 mi ENE 5.8 mph - -   Clear
9:00 AM 59.0 °F 50.0 °F 72% 30.24 in 6.2 mi ENE 5.8 mph - N/A   Partly Cloudy
9:30 AM 60.8 °F 51.8 °F 72% 30.24 in 6.2 mi ENE 9.2 mph - N/A   Scattered Clouds
10:00 AM 61 °F 50 °F 59% 30.27 in 12 mi NE 10.4 mph - -   Clear
10:00 AM 60.8 °F 50.0 °F 68% 30.27 in 6.2 mi NE 10.4 mph - N/A   Partly Cloudy
10:30 AM 62.6 °F 51.8 °F 68% 30.27 in 6.2 mi NE 9.2 mph - N/A   Partly Cloudy
11:00 AM 63 °F 51 °F 55% 30.27 in 22 mi ENE 9.2 mph - -   Clear
11:00 AM 62.6 °F 51.8 °F 68% 30.27 in 6.2 mi ENE 9.2 mph - N/A   Scattered Clouds
11:30 AM 62.6 °F 51.8 °F 68% 30.27 in 6.2 mi ENE 10.4 mph - N/A   Mostly Cloudy
12:00 PM 64 °F 53 °F 58% 30.27 in 12 mi NE 6.9 mph - -   Clear
12:00 PM 64.4 °F 53.6 °F 68% 30.27 in 6.2 mi NE 6.9 mph - N/A   Overcast
12:30 PM 64.4 °F 53.6 °F 68% 30.27 in 6.2 mi NE 6.9 mph - N/A   Overcast
1:00 PM 65 °F 53 °F 55% 30.27 in 12 mi NNE 15.7 mph - -   Clear
1:00 PM 64.4 °F 53.6 °F 68% 30.27 in 6.2 mi NNE 8.1 mph - N/A   Mostly Cloudy
1:30 PM 68.0 °F 55.4 °F 64% 30.27 in 6.2 mi ENE 10.4 mph - N/A   Mostly Cloudy
2:00 PM 67 °F 54 °F 53% 30.27 in 12 mi NNE 8.1 mph - -   Clear
2:00 PM 66.2 °F 53.6 °F 64% 30.24 in 6.2 mi NNE 8.1 mph - N/A   Scattered Clouds
2:30 PM 68.0 °F 55.4 °F 64% 30.24 in 6.2 mi ENE 9.2 mph - N/A   Mostly Cloudy
3:00 PM 69 °F 55 °F 51% 30.25 in 11 mi NNE 13.4 mph - -   Clear
3:00 PM 69.8 °F 55.4 °F 60% 30.24 in 6.2 mi NNE 6.9 mph - N/A   Mostly Cloudy
3:30 PM 68.0 °F 55.4 °F 64% 30.24 in 6.2 mi NE 9.2 mph - N/A   Mostly Cloudy
4:00 PM 68 °F 56 °F 56% 30.25 in 28 mi NNE 10.4 mph - -   Clear
4:00 PM 68.0 °F 55.4 °F 64% 30.24 in 6.2 mi NNE 10.4 mph - N/A   Mostly Cloudy
4:30 PM 68.0 °F 55.4 °F 64% 30.24 in 6.2 mi NNE 11.5 mph - N/A   Mostly Cloudy
5:00 PM 68 °F 56 °F 55% 30.25 in 12 mi NE 10.4 mph - -   Clear
5:00 PM 68.0 °F 55.4 °F 64% 30.24 in 6.2 mi NE 10.4 mph - N/A   Scattered Clouds
5:30 PM 68.0 °F 57.2 °F 68% 30.24 in 6.2 mi NNE 10.4 mph - N/A   Scattered Clouds
6:00 PM 65 °F 55 °F 61% 30.25 in 12 mi NNE 22.4 mph - -   Clear
6:00 PM 64.4 °F 55.4 °F 73% 30.24 in 6.2 mi NNE 11.5 mph - N/A   Mostly Cloudy
6:30 PM 62.6 °F 53.6 °F 72% 30.24 in 6.2 mi NNE 11.5 mph - N/A   Mostly Cloudy
7:00 PM 64 °F 56 °F 67% 30.25 in 17 mi NE 15.7 mph - -   Clear
7:00 PM 64.4 °F 55.4 °F 73% 30.24 in 6.2 mi NE 8.1 mph - N/A   Overcast
7:30 PM 62.6 °F 53.6 °F 72% 30.24 in 6.2 mi NE 9.2 mph - N/A   Overcast
8:00 PM 62.6 °F 53.6 °F 72% 30.24 in 6.2 mi ENE 9.2 mph - N/A   Overcast
8:30 PM 60.8 °F 53.6 °F 77% 30.24 in 6.2 mi NE 10.4 mph - N/A   Mostly Cloudy
9:00 PM 60 °F 53 °F 72% 30.24 in 12 mi ENE 13.4 mph - -   Clear
9:00 PM 60.8 °F 53.6 °F 77% 30.24 in 6.2 mi ENE 6.9 mph - N/A   Mostly Cloudy
9:30 PM 59.0 °F 53.6 °F 82% 30.24 in 6.2 mi NNE 3.5 mph - N/A   Partly Cloudy
10:00 PM 57 °F 52 °F 78% 30.25 in 12 mi NE 4.5 mph - -   Clear
10:00 PM 57.2 °F 51.8 °F 82% 30.24 in 6.2 mi Variable 2.3 mph - N/A   Partly Cloudy
10:30 PM 55.4 °F 51.8 °F 88% 30.24 in 6.2 mi NE 4.6 mph - N/A   Unknown
11:00 PM 55 °F 51 °F 81% 30.26 in 10 mi ENE 2.3 mph - -   Clear
11:00 PM 55.4 °F 51.8 °F 88% 30.24 in 6.2 mi Variable 2.3 mph - N/A   Unknown
11:30 PM 55.4 °F 50.0 °F 82% 30.24 in 6.2 mi Variable 2.3 mph - N/A   Unknown